| time (UTC) | temp F | wind direction | speed MPH | gust MPH | rain 1hr in | rain 24hr in | rain mn in | humidity % | barometer mb |
| 20260510060059 | 74 | 360 | 2.0 | 6.0 | 0.00 | 0.02 | 0.00 | 58 | 1010.5 |
| 20260510053055 | 75 | 360 | 2.0 | 6.0 | 0.00 | 0.02 | 0.00 | 59 | 1010.6 |
| 20260510051557 | 75 | 360 | 3.0 | 8.0 | 0.00 | 0.02 | 0.00 | 59 | 1010.7 |
| 20260510050052 | 75 | 360 | 2.0 | 5.0 | 0.00 | 0.02 | 0.00 | 59 | 1010.5 |
| 20260510043050 | 76 | 360 | 2.0 | 5.0 | 0.00 | 0.02 | 0.00 | 58 | 1010.4 |
| 20260510041547 | 77 | 360 | 1.0 | 3.0 | 0.00 | 0.02 | 0.00 | 58 | 1010.4 |
| 20260510040045 | 77 | 360 | 1.0 | 4.0 | 0.00 | 0.02 | 0.00 | 57 | 1010.4 |
| 20260510033046 | 78 | 360 | 3.0 | 6.0 | 0.00 | 0.02 | 0.00 | 57 | 1010.3 |
| 20260510031540 | 79 | 360 | 2.0 | 8.0 | 0.00 | 0.02 | 0.00 | 57 | 1010.0 |
| 20260510030036 | 79 | 360 | 2.0 | 9.0 | 0.00 | 0.02 | 0.00 | 56 | 1009.8 |
| 20260510023034 | 80 | 360 | 3.0 | 12.0 | 0.00 | 0.02 | 0.00 | 54 | 1009.3 |
| 20260510021532 | 80 | 360 | 3.0 | 9.0 | 0.00 | 0.02 | 0.00 | 53 | 1009.2 |
| 20260510020032 | 81 | 360 | 4.0 | 9.0 | 0.00 | 0.02 | 0.00 | 52 | 1008.9 |
| 20260510013026 | 82 | 360 | 4.0 | 10.0 | 0.00 | 0.02 | 0.00 | 50 | 1008.7 |
| 20260510011525 | 82 | 360 | 5.0 | 13.0 | 0.00 | 0.02 | 0.00 | 48 | 1008.5 |
| 20260510010021 | 83 | 360 | 3.0 | 8.0 | 0.00 | 0.02 | 0.00 | 45 | 1008.5 |
| 20260510003017 | 85 | 360 | 4.0 | 11.0 | 0.00 | 0.02 | 0.00 | 40 | 1008.3 |
| 20260510001514 | 86 | 360 | 7.0 | 13.0 | 0.00 | 0.02 | 0.00 | 38 | 1008.0 |
| 20260510000012 | 87 | 360 | 3.0 | 11.0 | 0.00 | 0.02 | 0.00 | 35 | 1008.1 |
| 20260509233007 | 88 | 360 | 6.0 | 14.0 | 0.00 | 0.02 | 0.00 | 31 | 1007.7 |
| 20260509231509 | 88 | 360 | 6.0 | 14.0 | 0.00 | 0.02 | 0.00 | 32 | 1007.7 |
| 20260509230004 | 88 | 360 | 6.0 | 11.0 | 0.00 | 0.02 | 0.00 | 34 | 1007.8 |
| 20260509223004 | 88 | 360 | 6.0 | 13.0 | 0.00 | 0.02 | 0.00 | 35 | 1007.9 |
| 20260509221502 | 89 | 360 | 6.0 | 13.0 | 0.00 | 0.02 | 0.00 | 34 | 1007.9 |
| 20260509220001 | 88 | 360 | 3.0 | 13.0 | 0.00 | 0.02 | 0.00 | 36 | 1007.9 |
| 20260509213059 | 88 | 360 | 4.0 | 11.0 | 0.00 | 0.02 | 0.00 | 37 | 1008.2 |
| 20260509211557 | 92 | 360 | 0.0 | 2.0 | 0.00 | 0.02 | 0.00 | 30 | 1008.2 |
| 20260509210100 | 94 | 360 | 1.0 | 5.0 | 0.00 | 0.02 | 0.00 | 29 | 1008.3 |
| 20260509203057 | 93 | 360 | 2.0 | 4.0 | 0.00 | 0.02 | 0.00 | 29 | 1008.8 |
| 20260509201550 | 93 | 360 | 2.0 | 5.0 | 0.00 | 0.02 | 0.00 | 31 | 1009.1 |
| 20260509200046 | 92 | 360 | 0.0 | 4.0 | 0.00 | 0.02 | 0.00 | 35 | 1009.3 |
| 20260509193039 | 89 | 360 | 3.0 | 8.0 | 0.00 | 0.02 | 0.02 | 38 | 1009.4 |
| 20260509191539 | 88 | 360 | 4.0 | 6.0 | 0.00 | 0.02 | 0.02 | 40 | 1009.5 |
| 20260509190039 | 89 | 360 | 4.0 | 8.0 | 0.00 | 0.02 | 0.02 | 41 | 1009.7 |
| 20260509183035 | 88 | 360 | 2.0 | 8.0 | 0.00 | 0.02 | 0.02 | 43 | 1010.2 |
| 20260509181533 | 88 | 360 | 2.0 | 4.0 | 0.00 | 0.02 | 0.02 | 44 | 1010.5 |
| 20260509180053 | 87 | 360 | 3.0 | 6.0 | 0.00 | 0.02 | 0.02 | 44 | 1010.7 |
| 20260509173041 | 86 | 360 | 1.0 | 4.0 | 0.00 | 0.02 | 0.02 | 41 | 1011.5 |
| 20260509171529 | 85 | 360 | 3.0 | 5.0 | 0.00 | 0.02 | 0.02 | 41 | 1011.3 |
| 20260509170044 | 82 | 360 | 2.0 | 6.0 | 0.00 | 0.02 | 0.02 | 44 | 1011.4 |
| 20260509163024 | 80 | 360 | 2.0 | 6.0 | 0.00 | 0.02 | 0.02 | 50 | 1011.5 |
| 20260509161515 | 78 | 360 | 3.0 | 13.0 | 0.00 | 0.02 | 0.02 | 52 | 1011.4 |
| 20260509160015 | 77 | 360 | 6.0 | 14.0 | 0.00 | 0.02 | 0.02 | 56 | 1011.4 |
| 20260509153018 | 75 | 360 | 9.0 | 15.0 | 0.00 | 0.02 | 0.02 | 59 | 1011.5 |
| 20260509151514 | 75 | 360 | 4.0 | 12.0 | 0.00 | 0.02 | 0.02 | 59 | 1011.5 |
| 20260509150013 | 75 | 360 | 3.0 | 10.0 | 0.00 | 0.02 | 0.02 | 61 | 1011.3 |
| 20260509143016 | 74 | 360 | 7.0 | 14.0 | 0.00 | 0.02 | 0.02 | 63 | 1011.0 |
| 20260509141526 | 74 | 360 | 4.0 | 11.0 | 0.00 | 0.02 | 0.02 | 64 | 1010.5 |
| 20260509140011 | 73 | 360 | 0.0 | 6.0 | 0.00 | 0.02 | 0.02 | 65 | 1010.3 |
| 20260509133009 | 72 | 360 | 5.0 | 12.0 | 0.00 | 0.02 | 0.02 | 65 | 1010.5 |
| 20260509131508 | 71 | 360 | 4.0 | 6.0 | 0.00 | 0.02 | 0.02 | 65 | 1011.0 |
| 20260509130008 | 71 | 360 | 1.0 | 4.0 | 0.00 | 0.02 | 0.02 | 65 | 1011.4 |
| 20260509123013 | 71 | 360 | 2.0 | 4.0 | 0.00 | 0.02 | 0.02 | 65 | 1010.8 |
| 20260509121509 | 71 | 360 | 3.0 | 6.0 | 0.00 | 0.02 | 0.02 | 65 | 1010.8 |
| 20260509120018 | 71 | 360 | 0.0 | 2.0 | 0.00 | 0.02 | 0.02 | 65 | 1011.0 |
| 20260509113004 | 71 | 360 | 0.0 | 2.0 | 0.01 | 0.02 | 0.02 | 65 | 1011.3 |
| 20260509111504 | 71 | 360 | 1.0 | 4.0 | 0.01 | 0.02 | 0.02 | 65 | 1012.0 |
| 20260509110004 | 71 | 360 | 0.0 | 3.0 | 0.01 | 0.02 | 0.02 | 65 | 1011.9 |
| 20260509103003 | 71 | 360 | 0.0 | 3.0 | 0.00 | 0.01 | 0.01 | 65 | 1012.0 |
| 20260509101505 | 71 | 360 | 1.0 | 3.0 | 0.00 | 0.01 | 0.01 | 64 | 1011.8 |
| 20260509100059 | 71 | 360 | 0.0 | 0.0 | 0.01 | 0.01 | 0.01 | 64 | 1011.3 |
| 20260509093102 | 71 | 360 | 0.0 | 3.0 | 0.01 | 0.01 | 0.01 | 63 | 1010.5 |
| 20260509091557 | 71 | 360 | 1.0 | 4.0 | 0.01 | 0.01 | 0.01 | 63 | 1010.5 |
| 20260509090059 | 71 | 360 | 0.0 | 3.0 | 0.00 | 0.00 | 0.00 | 62 | 1010.5 |
| 20260509083055 | 72 | 360 | 2.0 | 4.0 | 0.00 | 0.00 | 0.00 | 59 | 1010.8 |
| 20260509081557 | 72 | 360 | 1.0 | 4.0 | 0.00 | 0.00 | 0.00 | 57 | 1011.1 |
| 20260509080055 | 72 | 360 | 0.0 | 3.0 | 0.00 | 0.00 | 0.00 | 55 | 1011.0 |
| 20260509073058 | 72 | 360 | 1.0 | 4.0 | 0.00 | 0.00 | 0.00 | 54 | 1010.9 |
| 20260509071556 | 72 | 360 | 0.0 | 0.0 | 0.00 | 0.00 | 0.00 | 54 | 1011.2 |
| 20260509070101 | 72 | 360 | 0.0 | 3.0 | 0.00 | 0.00 | 0.00 | 54 | 1011.2 |
| 20260509063109 | 72 | 360 | 0.0 | 2.0 | 0.00 | 0.00 | 0.00 | 54 | 1011.0 |
| 20260509061613 | 72 | 360 | 1.0 | 4.0 | 0.00 | 0.00 | 0.00 | 54 | 1010.9 |